Weather History for Crestview, FL

Change the Weather History Date:

Sunday, January 26, 2014

  Actual Average Record
Temperature  
Mean Temperature 44 °F -  
Max Temperature 59 °F 58 °F 79 °F (1950)
Min Temperature 30 °F 32 °F 18 °F (2001)
Degree Days  
Heating Degree Days 20    
Moisture  
Dew Point 36 °F    
Average Humidity 77    
Maximum Humidity 96    
Minimum Humidity 32    
Precipitation  
Precipitation 0.00 in - - ()
Sea Level Pressure  
Sea Level Pressure 30.02 in    
Wind  
Wind Speed 1 mph (South)    
Max Wind Speed 10 mph    
Max Gust Speed -    
Visibility 8 miles    
Events      
Averages and records for this station are not official NWS values.
T = Trace of Precipitation, MM = Missing Value Source: NWS Daily Summary

Daily Weather History Graph

Daily Weather History Graph

Search for Another Location

Airport:

Trip Planner

Search our weather history database for the weather conditions in past years. The results will help you decide how hot, cold, wet, or windy it might be!

Date:

Astronomy

Jan. 26, 2014 Rise Set
Actual Time 6:40 AM CST 5:16 PM CST
Civil Twilight 6:15 AM CST 5:42 PM CST
Nautical Twilight 5:46 AM CST 6:11 PM CST
Astronomical Twilight 5:17 AM CST 6:40 PM CST
Moon 2:16 AM CST (1/26) 1:07 PM CST (1/26)
Length of Visible Light 11h 27m
Length of Day
10h 35m
Waning Crescent, 23% of the Moon is Illuminated
Jan 26
Waning Crescent
Jan 30
New
Feb 6
First Quarter
Feb 14
Full
Feb 22
Last Quarter

Hourly Weather History & Observations

Time (CST) Temp. Dew Point Humidity Pressure Visibility Wind Dir Wind Speed Gust Speed Precip Events Conditions
12:53 AM 32.0 °F 30.9 °F 96% 30.05 in 6.0 mi Calm Calm - N/A   Clear
1:30 AM 32.0 °F 30.0 °F 92% 30.04 in 0.8 mi Calm Calm - N/A   Clear
1:41 AM 32.0 °F 30.0 °F 92% 30.04 in 2.0 mi Calm Calm - N/A   Clear
1:48 AM 32.0 °F 30.2 °F 93% 30.04 in 6.0 mi Calm Calm - N/A   Clear
1:53 AM 32.0 °F 30.0 °F 92% 30.04 in 5.0 mi Calm Calm - N/A   Clear
2:53 AM 32.0 °F 30.0 °F 92% 30.05 in 9.0 mi Calm Calm - N/A   Clear
3:53 AM 30.9 °F 28.9 °F 92% 30.04 in 7.0 mi Calm Calm - N/A   Clear
4:38 AM 30.0 °F 28.0 °F 92% 30.05 in 9.0 mi Calm Calm - N/A   Partly Cloudy
4:53 AM 30.0 °F 28.9 °F 96% 30.05 in 8.0 mi Calm Calm - N/A   Partly Cloudy
5:53 AM 30.9 °F 28.9 °F 92% 30.06 in 7.0 mi Calm Calm - N/A   Partly Cloudy
6:53 AM 32.0 °F 30.0 °F 92% 30.07 in 7.0 mi Calm Calm - N/A   Clear
7:53 AM 35.1 °F 33.1 °F 92% 30.08 in 6.0 mi Calm Calm - N/A   Clear
8:53 AM 41.0 °F 37.9 °F 89% 30.09 in 8.0 mi Calm Calm - N/A   Clear
9:53 AM 52.0 °F 35.1 °F 53% 30.10 in 10.0 mi ESE 3.5 mph - N/A   Clear
10:53 AM 57.0 °F 28.0 °F 33% 30.09 in 10.0 mi South 8.1 mph - N/A   Clear
11:53 AM 57.9 °F 28.0 °F 32% 30.05 in 10.0 mi South 8.1 mph - N/A   Clear
12:53 PM 59.0 °F 37.0 °F 44% 30.01 in 10.0 mi South 5.8 mph - N/A   Clear
1:53 PM 59.0 °F 41.0 °F 51% 29.98 in 10.0 mi South 10.4 mph - N/A   Clear
2:53 PM 57.9 °F 39.9 °F 51% 29.95 in 10.0 mi South 8.1 mph - N/A   Clear
3:53 PM 59.0 °F 42.1 °F 53% 29.94 in 10.0 mi South 8.1 mph - N/A   Clear
4:53 PM 57.0 °F 45.0 °F 64% 29.95 in 10.0 mi South 5.8 mph - N/A   Clear
5:53 PM 55.0 °F 43.0 °F 64% 29.96 in 10.0 mi Calm Calm - N/A   Clear
6:53 PM 53.1 °F 43.0 °F 69% 29.96 in 10.0 mi Calm Calm - N/A   Clear
7:53 PM 48.0 °F 42.1 °F 80% 29.97 in 10.0 mi Calm Calm - N/A   Clear
8:53 PM 44.1 °F 41.0 °F 89% 29.96 in 10.0 mi Calm Calm - N/A   Clear
9:53 PM 45.0 °F 42.1 °F 90% 29.98 in 10.0 mi Calm Calm - N/A   Clear
10:53 PM 46.0 °F 43.0 °F 89% 29.97 in 10.0 mi Calm Calm - N/A   Overcast
11:22 PM 46.0 °F 42.1 °F 86% 29.97 in 10.0 mi Calm Calm - N/A   Overcast
11:53 PM 46.9 °F 42.1 °F 83% 29.96 in 10.0 mi Calm Calm - N/A   Overcast